Location: Unspecified
(50.7693°N, 0.0000°E)
Time: 07:15:40
(UTC+00:00)

Transit 2A - Pass Details

Date: 19 August 2020
Orbit: 591 x 967 km, 66.7° (Epoch: 20 September)

Event Time Altitude Azimuth Distance (km) Brightness Sun altitude
Rises 22:34:42 0° 304° (NW) 3,633 10.4 -24.0°
Reaches altitude 10° 22:38:07 10° 322° (NW) 2,710 9.8 -24.2°
Maximum altitude 22:42:32 19° 6° (N) 2,128 9.0 -24.4°
Drops below altitude 10° 22:46:57 10° 50° (NE) 2,695 9.0 -24.7°
Sets 22:50:19 0° 68° (ENE) 3,607 9.5 -24.9°
